This is the latest recevied weather packets stored in our database for station/object DL4ABR-6. If no packets are shown the sender has not sent any weather packets the latest 10 day(s).
| Time | Temp. | Humidity | Pressure | Rain* | Wind** | Luminosity | Snow |
|---|---|---|---|---|---|---|---|
| 1778164955 | 10° C | 92% | 1012.4 hPa | 6.86 mm | - | - | - |
| 1778164155 | 9.44° C | 93% | 1012.4 hPa | 6.86 mm | - | - | - |
| 1778163375 | 9.44° C | 94% | 1012.4 hPa | 6.86 mm | - | - | - |
| 1778162545 | 9.44° C | 94% | 1012.4 hPa | 6.86 mm | - | - | - |
| 1778161700 | 9.44° C | 94% | 1012.5 hPa | 6.86 mm | - | - | - |
| 1778160930 | 9.44° C | 93% | 1012.3 hPa | 6.86 mm | - | - | - |
| 1778160095 | 10° C | 93% | 1012.4 hPa | 6.86 mm | - | - | - |
| 1778159340 | 10° C | 93% | 1012.1 hPa | 6.86 mm | - | - | - |
| 1778158585 | 9.44° C | 95% | 1012.1 hPa | 6.86 mm | - | - | - |
| 1778157857 | 9.44° C | 95% | 1012.1 hPa | 6.86 mm | - | - | - |
| 1778156975 | 8.89° C | 95% | 1011.7 hPa | 6.86 mm | - | - | - |
| 1778156210 | 8.89° C | 97% | 1012 hPa | 6.86 mm | - | - | - |
| 1778155415 | 8.33° C | 98% | 1011.6 hPa | 6.86 mm | - | - | - |
| 1778154572 | 8.33° C | 98% | 1011.8 hPa | 6.86 mm | - | - | - |
| 1778153810 | 7.78° C | 99% | 1011.8 hPa | 6.86 mm | - | - | - |
| 1778152941 | 7.78° C | 99% | 1011.7 hPa | 6.86 mm | - | - | - |
| 1778152170 | 7.78° C | 99% | 1011.4 hPa | 6.86 mm | - | - | - |
| 1778151283 | 8.33° C | 99% | 1011.4 hPa | 6.86 mm | - | - | - |
| 1778150515 | 8.33° C | 99% | 1011.2 hPa | 6.86 mm | - | - | - |
| 1778149735 | 8.33° C | 99% | 1011.2 hPa | 6.86 mm | - | - | - |
| 1778149000 | 7.78° C | 99% | 1011.1 hPa | 6.86 mm | - | - | - |
| 1778148215 | 8.33° C | 99% | 1011 hPa | 6.86 mm | - | - | - |
| 1778147326 | 8.33° C | 99% | 1010.6 hPa | 6.86 mm | - | - | - |
| 1778146585 | 7.78° C | 99% | 1010.7 hPa | 6.86 mm | - | - | - |
| 1778145840 | 7.78° C | 99% | 1010.4 hPa | 6.86 mm | - | - | - |
* Rain since midnight (hover to see other rain measurements)
** Current wind speed in m/s (hover to see current wind gust speed)